Regional Weather Roundup
Issued by NWS

Home | Current Version | Previous Version | Text Only | Print | Product List | Glossary Off
Versions: 1 2 3 4 5 6 7 8 9 10 11 12 13 14 15 16 17 18 19 20 21 22 23 24 25 26 27 28 29 30 31 32 33 34 35 36 37 38 39 40 41 42 43 44 45 46 47 48 49 50

000
ASUS43 KLMK 201602
RWRKY
KENTUCKY REGIONAL WEATHER ROUNDUP
NATIONAL WEATHER SERVICE LOUISVILLE KY
1100 AM EST SAT DEC 20 2014

NOTE "FAIR" INDICATES FEW OR NO CLOUDS BELOW 12,000 FEET
WITH NO SIGNIFICANT WEATHER AND/OR OBSTRUCTIONS TO VISIBILITY.

KYZ001>023-026-027-061>063-070>075-201700-
WESTERN AND SOUTH CENTRAL KENTUCKY

CITY           SKY/WX    TMP DP  RH WIND       PRES   REMARKS
PADUCAH        CLOUDY    37  28  70 E6        30.30R WCI  32
HENDERSON      CLOUDY    34  25  69 CALM      30.32R
OWENSBORO      CLOUDY    33  26  76 NE6       30.32R WCI  27
HOPKINSVILLE   CLOUDY    35  28  75 E2        30.30S
BOWLING GREEN  CLOUDY    36  26  67 CALM      30.31R
GLASGOW        NOT AVBL
$$

KYZ024-025-028>034-038-045-046-053-201700-
NORTH CENTRAL KENTUCKY

CITY           SKY/WX    TMP DP  RH WIND       PRES   REMARKS
LOUISVILLE/SDF CLOUDY    34  26  72 CALM      30.31R
LOUISVILLE/LOU CLOUDY    32  26  78 CALM      30.31S
FORT KNOX      CLOUDY    32  25  76 VRB3      30.28S
$$

KYZ035>037-039>044-047>052-055>060-089>105-201700-
NORTHEAST KENTUCKY

CITY           SKY/WX    TMP DP  RH WIND       PRES   REMARKS
LEXINGTON      CLOUDY    31  24  75 CALM      30.28R
COVINGTON      CLOUDY    31  24  75 CALM      30.29R
FRANKFORT      CLOUDY    32  25  75 VRB3      30.28S
$$

KYZ054-064>069-076>088-106>120-201700-
SOUTHEAST KENTUCKY

CITY           SKY/WX    TMP DP  RH WIND       PRES   REMARKS
JACKSON        CLOUDY    31  23  72 CALM      30.24S
LONDON         CLOUDY    34  25  69 CALM      30.24F
SOMERSET       NOT AVBL
MIDDLESBORO    NOT AVBL
MONTICELLO     CLOUDY    35  27  73 CALM      30.30R
$$




USA.gov is the U.S. government's official web portal to all federal, state and local government web resources and services.